Клетский

Россия / Волгоградская область     49°09′45″N   42°57′44″E
В апреле 2022 года жителям России запретили посещать сайт meteo.paraplan.net по решению Генеральной прокуратуры. Аудитория сайта уменьшилась в 10 раз. Владельцы сайта не видят смысла в поддержке погодного сервера в таких условиях. Сайт будет закрыт в октябре.
темп.,
°C
ветер,
м/с
пор.,
м/с
влажн.,
%
обл.,
%
осадки,
мм/ч
давл.,
гПа
погр.,
м
25 сентября, вс
вс2500:00+10юз61083100 0.3 1012601
03:00+10з3680100 3.9 1012388
06:00+8зюз612855 0.0 1011464
09:00+11зюз91371100 0.0 1011868
12:00+10зюз81480100 0.8 10121484
15:00+10з91781100 2.8 10131578
18:00+11з7166653 0.3 10131271
21:00+9юз411787 0.3 1014255
26 сентября, пн
пн2600:00+9зюз614705 0.0 1015418
03:00+8зюз613765 0.0 1015348
06:00+8зюз5127653 0.0 1016269
09:00+12з7115882 0.0 1017804
12:00+14з61248100 0.0 10171619
15:00+16з5104419 0.0 10171679
18:00+15ююв0050100 0.0 101612
21:00+14ююз2354100 0.0 101677
27 сентября, вт
вт2700:00+14юз2469100 0.1 101698
03:00+14ююз4773100 0.2 1015188
06:00+12ююз4876100 0.0 1015151
09:00+16ю5863100 0.0 1014371
12:00+19ю5745100 0.0 1013902
15:00+19ю6754100 0.0 10121020
18:00+18ююв3663100 0.0 1012178
21:00+16вюв4970100 0.0 1011181
28 сентября, ср
ср2800:00+16ююв7147299 0.0 1009373
03:00+15ююв61278100 0.0 1009310
06:00+15ююв51181100 0.0 1008261
09:00+17ююв81370100 0.0 1007464
12:00+22ююв81057100 0.0 1006846
15:00+23ю71050100 0.0 10051240
18:00+22ю5946100 0.0 1005313
21:00+19юз375966 0.1 1006225
29 сентября, чт
чт2900:00+17зюз366652 0.0 1007145
03:00+15зюз358646 0.0 1008110
06:00+14з239212 0.0 101048
09:00+18сз33735 0.0 1011410
12:00+21сз34510 0.0 10121010
15:00+22сз444085 0.0 10121402
18:00+19с344866 0.0 101481
21:00+17с335750 0.0 101657